| time (UTC) | temp C | wind direction | speed KPH | gust KPH | rain 1hr cm | rain 24hr cm | rain mn cm | humidity % | barometer mb |
| 20260831050047 | 12 | 211 | 0.0 | 0.0 | 0.00 | 0.00 | 0.00 | 91 | 1006.8 |
| 20260831044544 | 12 | 211 | 0.0 | 0.0 | 0.00 | 0.00 | 0.00 | 90 | 1007.0 |
| 20260831043042 | 12 | 211 | 0.0 | 0.0 | 0.00 | 0.00 | 0.00 | 89 | 1007.0 |
| 20260831041542 | 12 | 211 | 0.0 | 0.0 | 0.00 | 0.00 | 0.00 | 88 | 1006.9 |
| 20260831040047 | 12 | 211 | 0.0 | 0.0 | 0.00 | 0.00 | 0.00 | 87 | 1006.7 |
| 20260831034541 | 13 | 211 | 0.0 | 0.0 | 0.00 | 0.00 | 0.00 | 86 | 1006.6 |
| 20260831033040 | 13 | 221 | 0.0 | 0.0 | 0.00 | 0.00 | 0.00 | 84 | 1006.6 |
| 20260831031542 | 14 | 197 | 0.0 | 0.0 | 0.00 | 0.00 | 0.00 | 82 | 1006.6 |
| 20260831030039 | 15 | 221 | 0.0 | 0.0 | 0.00 | 0.00 | 0.00 | 79 | 1006.5 |
| 20260831024539 | 16 | 208 | 0.0 | 0.0 | 0.00 | 0.00 | 0.00 | 76 | 1006.4 |
| 20260831023042 | 17 | 205 | 0.0 | 0.0 | 0.00 | 0.00 | 0.00 | 72 | 1006.4 |
| 20260831021552 | 18 | 229 | 0.0 | 0.0 | 0.00 | 0.00 | 0.00 | 69 | 1006.4 |
| 20260831020038 | 19 | 222 | 0.0 | 0.0 | 0.00 | 0.00 | 0.00 | 66 | 1006.5 |
| 20260831014537 | 20 | 201 | 0.0 | 0.0 | 0.00 | 0.00 | 0.00 | 63 | 1006.6 |
| 20260831013037 | 21 | 221 | 0.0 | 0.0 | 0.00 | 0.00 | 0.00 | 59 | 1006.5 |
| 20260831011540 | 22 | 211 | 0.0 | 0.0 | 0.00 | 0.00 | 0.00 | 57 | 1006.5 |
| 20260831010058 | 23 | 180 | 0.0 | 0.0 | 0.00 | 0.00 | 0.00 | 55 | 1006.4 |
| 20260831004536 | 23 | 156 | 0.0 | 0.0 | 0.00 | 0.00 | 0.00 | 54 | 1006.6 |
| 20260831003032 | 24 | 231 | 0.0 | 0.0 | 0.00 | 0.00 | 0.00 | 53 | 1006.6 |
| 20260831001549 | 24 | 296 | 0.0 | 0.0 | 0.00 | 0.00 | 0.00 | 54 | 1006.6 |
| 20260831000029 | 25 | 191 | 0.0 | 0.0 | 0.00 | 0.00 | 0.00 | 51 | 1006.6 |
| 20260830234530 | 26 | 201 | 0.0 | 0.0 | 0.00 | 0.00 | 0.00 | 52 | 1006.7 |
| 20260830233027 | 26 | 168 | 0.0 | 0.0 | 0.00 | 0.00 | 0.00 | 49 | 1006.6 |
| 20260830231530 | 26 | 220 | 0.0 | 0.0 | 0.00 | 0.00 | 0.00 | 48 | 1006.8 |
| 20260830230022 | 26 | 180 | 0.0 | 1.6 | 0.00 | 0.00 | 0.00 | 47 | 1006.9 |
| 20260830224521 | 27 | 234 | 0.0 | 0.0 | 0.00 | 0.00 | 0.00 | 47 | 1007.0 |
| 20260830223022 | 26 | 218 | 0.0 | 0.0 | 0.00 | 0.00 | 0.00 | 46 | 1007.1 |
| 20260830221518 | 27 | 205 | 0.0 | 1.6 | 0.00 | 0.00 | 0.00 | 43 | 1007.3 |
| 20260830220018 | 26 | 177 | 0.0 | 0.0 | 0.00 | 0.00 | 0.00 | 47 | 1007.5 |
| 20260830214512 | 26 | 232 | 1.6 | 8.0 | 0.00 | 0.00 | 0.00 | 49 | 1007.6 |
| 20260830213009 | 26 | 202 | 0.0 | 4.8 | 0.00 | 0.00 | 0.00 | 47 | 1007.9 |
| 20260830211516 | 26 | 188 | 0.0 | 0.0 | 0.00 | 0.00 | 0.00 | 49 | 1007.9 |
| 20260830210007 | 26 | 171 | 0.0 | 0.0 | 0.00 | 0.00 | 0.00 | 50 | 1008.1 |
| 20260830204504 | 26 | 185 | 0.0 | 0.0 | 0.00 | 0.00 | 0.00 | 50 | 1008.1 |
| 20260830203119 | 26 | 237 | 0.0 | 0.0 | 0.00 | 0.00 | 0.00 | 49 | 1008.1 |
| 20260830201600 | 26 | 226 | 0.0 | 3.2 | 0.00 | 0.00 | 0.00 | 50 | 1008.3 |
| 20260830200100 | 27 | 226 | 0.0 | 1.6 | 0.00 | 0.00 | 0.00 | 50 | 1008.3 |
| 20260830194552 | 26 | 182 | 0.0 | 4.8 | 0.00 | 0.00 | 0.00 | 49 | 1008.3 |
| 20260830193049 | 25 | 176 | 0.0 | 0.0 | 0.00 | 0.00 | 0.00 | 52 | 1008.4 |
| 20260830191548 | 24 | 350 | 0.0 | 0.0 | 0.00 | 0.00 | 0.00 | 51 | 1008.6 |
| 20260830190045 | 24 | 208 | 0.0 | 0.0 | 0.00 | 0.00 | 0.00 | 54 | 1008.6 |
| 20260830184540 | 22 | 192 | 0.0 | 0.0 | 0.00 | 0.00 | 0.00 | 58 | 1008.7 |
| 20260830183038 | 22 | 286 | 0.0 | 0.0 | 0.00 | 0.00 | 0.00 | 58 | 1008.7 |
| 20260830181541 | 21 | 187 | 0.0 | 0.0 | 0.00 | 0.00 | 0.00 | 61 | 1008.6 |
| 20260830180047 | 20 | 164 | 0.0 | 0.0 | 0.00 | 0.00 | 0.00 | 66 | 1008.7 |
| 20260830174528 | 18 | 194 | 0.0 | 0.0 | 0.00 | 0.00 | 0.00 | 70 | 1008.7 |
| 20260830173044 | 18 | 155 | 0.0 | 0.0 | 0.00 | 0.00 | 0.00 | 74 | 1008.6 |
| 20260830171520 | 16 | 188 | 0.0 | 0.0 | 0.00 | 0.00 | 0.00 | 77 | 1008.6 |
| 20260830170017 | 16 | 142 | 0.0 | 0.0 | 0.00 | 0.00 | 0.00 | 81 | 1008.6 |
| 20260830164511 | 15 | 196 | 0.0 | 0.0 | 0.00 | 0.00 | 0.00 | 84 | 1008.6 |
| 20260830163010 | 15 | 200 | 0.0 | 0.0 | 0.00 | 0.00 | 0.00 | 85 | 1008.5 |
| 20260830161505 | 14 | 200 | 0.0 | 0.0 | 0.00 | 0.00 | 0.00 | 90 | 1008.7 |
| 20260830154558 | 12 | 194 | 0.0 | 0.0 | 0.00 | 0.00 | 0.00 | 94 | 1008.7 |
| 20260830153054 | 12 | 188 | 0.0 | 0.0 | 0.00 | 0.00 | 0.00 | 95 | 1008.7 |
| 20260830151552 | 11 | 188 | 0.0 | 0.0 | 0.00 | 0.00 | 0.00 | 96 | 1008.6 |
| 20260830150050 | 10 | 29 | 0.0 | 0.0 | 0.00 | 0.00 | 0.00 | 96 | 1008.6 |
| 20260830144548 | 9 | 29 | 0.0 | 0.0 | 0.00 | 0.00 | 0.00 | 95 | 1008.6 |
| 20260830143052 | 9 | 29 | 0.0 | 0.0 | 0.00 | 0.00 | 0.00 | 95 | 1008.5 |
| 20260830141548 | 9 | 238 | 0.0 | 0.0 | 0.00 | 0.00 | 0.00 | 95 | 1008.4 |
| 20260830140056 | 8 | 234 | 0.0 | 0.0 | 0.00 | 0.00 | 0.00 | 94 | 1008.2 |
| 20260830134551 | 9 | 234 | 0.0 | 0.0 | 0.00 | 0.00 | 0.00 | 95 | 1008.1 |
| 20260830133045 | 9 | 234 | 0.0 | 0.0 | 0.00 | 0.00 | 0.00 | 95 | 1008.1 |
| 20260830131604 | 9 | 234 | 0.0 | 0.0 | 0.00 | 0.00 | 0.00 | 95 | 1008.1 |
| 20260830130042 | 9 | 234 | 0.0 | 0.0 | 0.00 | 0.00 | 0.00 | 94 | 1008.0 |
| 20260830124541 | 9 | 234 | 0.0 | 0.0 | 0.00 | 0.03 | 0.00 | 94 | 1008.0 |
| 20260830123044 | 9 | 234 | 0.0 | 0.0 | 0.00 | 0.03 | 0.00 | 94 | 1008.0 |
| 20260830121539 | 9 | 234 | 0.0 | 0.0 | 0.00 | 0.03 | 0.00 | 94 | 1008.0 |
| 20260830120037 | 9 | 234 | 0.0 | 0.0 | 0.00 | 0.03 | 0.00 | 94 | 1008.1 |
| 20260830114546 | 9 | 234 | 0.0 | 0.0 | 0.00 | 0.03 | 0.00 | 94 | 1008.2 |
| 20260830113039 | 9 | 234 | 0.0 | 0.0 | 0.00 | 0.03 | 0.00 | 94 | 1008.2 |
| 20260830111533 | 10 | 234 | 0.0 | 0.0 | 0.00 | 0.03 | 0.00 | 94 | 1008.2 |
| 20260830110037 | 10 | 234 | 0.0 | 0.0 | 0.00 | 0.03 | 0.00 | 94 | 1008.3 |
| 20260830104533 | 10 | 234 | 0.0 | 0.0 | 0.00 | 0.03 | 0.00 | 93 | 1008.2 |
| 20260830103030 | 10 | 234 | 0.0 | 0.0 | 0.00 | 0.03 | 0.00 | 93 | 1008.3 |
| 20260830101532 | 10 | 234 | 0.0 | 0.0 | 0.00 | 0.03 | 0.00 | 94 | 1008.3 |
| 20260830100027 | 10 | 234 | 0.0 | 0.0 | 0.00 | 0.03 | 0.00 | 93 | 1008.4 |
| 20260830094526 | 10 | 234 | 0.0 | 0.0 | 0.00 | 0.03 | 0.00 | 93 | 1008.4 |
| 20260830093024 | 10 | 234 | 0.0 | 0.0 | 0.00 | 0.03 | 0.00 | 93 | 1008.4 |
| 20260830091527 | 10 | 234 | 0.0 | 0.0 | 0.00 | 0.03 | 0.00 | 93 | 1008.4 |
| 20260830090022 | 10 | 234 | 0.0 | 0.0 | 0.00 | 0.03 | 0.00 | 92 | 1008.5 |
| 20260830084520 | 10 | 234 | 0.0 | 0.0 | 0.00 | 0.03 | 0.00 | 92 | 1008.5 |
| 20260830083018 | 10 | 234 | 0.0 | 0.0 | 0.00 | 0.03 | 0.00 | 92 | 1008.5 |
| 20260830081523 | 10 | 234 | 0.0 | 0.0 | 0.00 | 0.03 | 0.00 | 91 | 1008.7 |
| 20260830080019 | 10 | 234 | 0.0 | 0.0 | 0.00 | 0.03 | 0.00 | 91 | 1008.8 |
| 20260830074521 | 10 | 234 | 0.0 | 0.0 | 0.00 | 0.03 | 0.00 | 91 | 1008.7 |
| 20260830073011 | 11 | 234 | 0.0 | 0.0 | 0.00 | 0.03 | 0.00 | 90 | 1008.8 |
| 20260830071511 | 11 | 234 | 0.0 | 0.0 | 0.00 | 0.03 | 0.00 | 90 | 1008.8 |
| 20260830070007 | 11 | 234 | 0.0 | 0.0 | 0.00 | 0.03 | 0.00 | 90 | 1008.8 |
| 20260830064506 | 11 | 234 | 0.0 | 0.0 | 0.00 | 0.03 | 0.03 | 89 | 1008.9 |
| 20260830063007 | 11 | 234 | 0.0 | 0.0 | 0.00 | 0.03 | 0.03 | 89 | 1009.0 |
| 20260830061517 | 11 | 234 | 0.0 | 0.0 | 0.00 | 0.03 | 0.03 | 88 | 1009.0 |
| 20260830060005 | 12 | 234 | 0.0 | 0.0 | 0.00 | 0.03 | 0.03 | 88 | 1009.1 |
| 20260830054514 | 12 | 234 | 0.0 | 0.0 | 0.00 | 0.03 | 0.03 | 88 | 1009.1 |
| 20260830053004 | 12 | 234 | 0.0 | 0.0 | 0.00 | 0.03 | 0.03 | 88 | 1009.1 |
| 20260830051508 | 12 | 234 | 0.0 | 0.0 | 0.00 | 0.03 | 0.03 | 88 | 1009.2 |